Regional Weather Roundup
Issued by NWS

Home | Current Version | Previous Version | Graphics & Text | Print | Product List | Glossary On
Versions: 1 2 3 4 5 6 7 8 9 10 11 12 13 14 15 16 17 18 19 20 21 22 23 24 25 26 27 28 29 30 31 32 33 34 35 36 37 38 39 40 41 42 43 44 45 46 47 48 49 50
000
ASUS43 KLSX 021759
RWRMO

WEATHER SUMMARY FOR MISSOURI
NATIONAL WEATHER SERVICE SPRINGFIELD MO
100 PM CDT TUE JUN 02 2015

NOTE: "FAIR" INDICATES FEW OR NO CLOUDS BELOW 12,000 FEET WITH NO
       SIGNIFICANT WEATHER AND/OR OBSTRUCTIONS TO VISIBILITY.
       CURRENT SKY AND/OR WEATHER CONDITIONS ARE NOT AVAILABLE FOR
       CHILLICOTHE AND FARMINGTON.

MOZ001>031-035>038-043-044-053-054-021900-
...NORTHERN AND WESTERN MISSOURI...

CITY           SKY/WX    TMP DP  RH WIND       PRES   REMARKS
KANSAS CTY INT PTSUNNY   69  59  70 S13       30.04F
6HR MIN TEMP:  58; 6HR MAX TEMP:  70;

KANSAS C DTWN  PTSUNNY   70  57  63 S9        30.04F
6HR MIN TEMP:  60; 6HR MAX TEMP:  71;

LEE`S SUMMIT   PTSUNNY   70  58  65 VRB7      30.06F
6HR MIN TEMP:  58; 6HR MAX TEMP:  70;

ST JOSEPH      PTSUNNY   71  59  65 S14       30.02F
6HR MIN TEMP:  59; 6HR MAX TEMP:  72;

CHILLICOTHE      N/A     67  56  67 SE9       30.08F
6HR MIN TEMP:  61; 6HR MAX TEMP:  67;

KIRKSVILLE     CLOUDY    68  57  68 SE13      30.10F
6HR MIN TEMP:  56; 6HR MAX TEMP:  68;


$$
MOZ066>068-077>081-088>096-101>105-021900-
...SOUTHWEST MISSOURI...

CITY           SKY/WX    TMP DP  RH WIND       PRES   REMARKS
SPRINGFIELD    CLOUDY    68  60  75 SE8       30.08F
6HR MIN TEMP:  58; 6HR MAX TEMP:  68;

JOPLIN         CLOUDY    76  63  64 S6        30.04F
6HR MIN TEMP:  58; 6HR MAX TEMP:  77;


$$
MOZ032>034-039>042-045>050-055>058-069>072-021900-
...CENTRAL MISSOURI...

CITY           SKY/WX    TMP DP  RH WIND       PRES   REMARKS
COLUMBIA       CLOUDY    67  56  67 SE9       30.11F
6HR MIN TEMP:  59; 6HR MAX TEMP:  68;

JEFFERSON CITY CLOUDY    66  55  67 SE8       30.10F
6HR MIN TEMP:  59; 6HR MAX TEMP:  67;

ROLLA          CLOUDY    63  55  75 E6        30.11S
6HR MIN TEMP:  58; 6HR MAX TEMP:  63;

SEDALIA        CLOUDY    69  57  65 SE10      30.09F
6HR MIN TEMP:  60; 6HR MAX TEMP:  70;

OSAGE BEACH    CLOUDY    66  54  63 SE7       30.10F

$$
MOZ051-052-059>065-021900-
...EAST CENTRAL MISSOURI...

CITY           SKY/WX    TMP DP  RH WIND       PRES   REMARKS
ST LOUIS INTL  PTSUNNY   70  53  54 E8        30.11F
6HR MIN TEMP:  61; 6HR MAX TEMP:  71;

SPIRIT OF STL  PTSUNNY   69  56  62 VRB6      30.09F
6HR MIN TEMP:  60; 6HR MAX TEMP:  69;

ST CHARLES     MOSUNNY   70  56  61 MISG      30.10F
6HR MIN TEMP:  59; 6HR MAX TEMP:  71;


$$
MOZ072>076-082>087-097>100-106>115-021900-
...SOUTH CENTRAL AND SOUTHEAST MISSOURI...

CITY           SKY/WX    TMP DP  RH WIND       PRES   REMARKS
CAPE GIRARDEAU CLOUDY    64  56  75 NE6       30.11F
6HR MIN TEMP:  59; 6HR MAX TEMP:  64;

FARMINGTON     CLOUDY    61  57  88 NE6       30.15F
6HR MIN TEMP:  57; 6HR MAX TEMP:  61;

POPLAR BLUFF   CLOUDY    64  55  72 N7        30.10F
6HR MIN TEMP:  61; 6HR MAX TEMP:  65;

WEST PLAINS    CLOUDY    68  56  65 NE6       30.11F
6HR MIN TEMP:  58; 6HR MAX TEMP:  69;


$$



USA.gov is the U.S. government's official web portal to all federal, state and local government web resources and services.